Galveston, TX

7:27 PM CDT on March 25, 2017 (GMT -0500)
Scholes International At Galveston

Weather History for KGLS - October, 2012

Change the Weather History Date:

Thursday, October 11, 2012

  Actual Average Record
Temperature  
Mean Temperature 82 °F 76 °F  
Max Temperature 85 °F 82 °F 88 °F (1980)
Min Temperature 78 °F 70 °F 55 °F (1990)
Degree Days  
Heating Degree Days 0 0  
Month to date heating degree days 0 0  
Since 1 July heating degree days 0 0  
Cooling Degree Days 17 11  
Month to date cooling degree days 106 133  
Year to date cooling degree days 3552 3026  
Growing Degree Days 31 (Base 50)    
Moisture  
Dew Point 73 °F    
Average Humidity 78    
Maximum Humidity 91    
Minimum Humidity 65    
Precipitation  
Precipitation 0.00 in 0.18 in 1.62 in (1997)
Month to date precipitation 0.01 2.00  
Year to date precipitation 42.98 39.21  
Snow  
Snow 0.00 in - 0.00 in (2002)
Month to date snowfall 0.0  
Since 1 July snowfall 0.0  
Since 1 September snowfall 0.0  
Snow Depth 0.00 in    
Sea Level Pressure  
Sea Level Pressure 30.12 in    
Wind  
Wind Speed 12 mph (ESE)    
Max Wind Speed 17 mph    
Max Gust Speed 21 mph    
Visibility 10 miles    
Events      
T = Trace of Precipitation, MM = Missing Value Source: NWS Daily Summary

Daily Weather History Graph

Daily Weather History Graph

Search for Another Location

Airport or City:

Trip Planner

Search our weather history database for the weather conditions in past years. The results will help you decide how hot, cold, wet, or windy it might be!

Date:

Astronomy

Oct. 11, 2012 Rise Set
Actual Time 7:18 AM CDT 6:52 PM CDT
Civil Twilight 6:54 AM CDT 7:16 PM CDT
Nautical Twilight 6:27 AM CDT 7:44 PM CDT
Astronomical Twilight 5:59 AM CDT 8:11 PM CDT
Moon 3:16 AM CDT (10/11) 4:14 PM CDT (10/11)
Length of Visible Light 12h 22m
Length of Day
11h 34m
Waning Crescent, 18% of the Moon is Illuminated
Oct 11
Waning Crescent
Oct 15
New
Oct 21
First Quarter
Oct 29
Full
Nov 6
Last Quarter

Hourly Weather History & Observations

Time (CDT) Temp. Heat Index Dew Point Humidity Pressure Visibility Wind Dir Wind Speed Gust Speed Precip Events Conditions
12:52 AM 78.1 °F - 73.9 °F 87% 30.10 in 10.0 mi SE 11.5 mph - N/A   Partly Cloudy
1:52 AM 78.8 °F - 73.4 °F 83% 30.10 in 10.0 mi SE 10.4 mph - N/A   Overcast
2:52 AM 78.1 °F - 75.0 °F 90% 30.09 in 10.0 mi SE 9.2 mph - N/A   Partly Cloudy
3:49 AM 78.8 °F - 75.2 °F 89% 30.09 in 10.0 mi SE 12.7 mph - N/A   Mostly Cloudy
3:52 AM 78.1 °F - 75.0 °F 90% 30.09 in 10.0 mi SE 10.4 mph - N/A   Mostly Cloudy
4:27 AM 78.8 °F - 73.4 °F 83% 30.09 in 10.0 mi SE 10.4 mph - N/A   Partly Cloudy
4:52 AM 78.1 °F - 73.9 °F 87% 30.09 in 10.0 mi ESE 10.4 mph - N/A   Partly Cloudy
5:52 AM 78.1 °F - 72.0 °F 81% 30.10 in 10.0 mi SE 11.5 mph - N/A   Clear
6:52 AM 78.1 °F - 72.0 °F 81% 30.11 in 10.0 mi SE 9.2 mph - N/A   Clear
7:52 AM 79.0 °F - 72.0 °F 79% 30.13 in 10.0 mi ESE 11.5 mph - N/A   Partly Cloudy
8:52 AM 80.6 °F 84.6 °F 71.6 °F 74% 30.14 in 10.0 mi ESE 11.5 mph - N/A   Clear
9:52 AM 82.4 °F 87.2 °F 71.6 °F 70% 30.17 in 10.0 mi ESE 13.8 mph - N/A   Clear
10:52 AM 82.9 °F 88.0 °F 72.0 °F 69% 30.17 in 10.0 mi ESE 12.7 mph - N/A   Clear
11:52 AM 82.9 °F 87.5 °F 71.1 °F 67% 30.17 in 10.0 mi ESE 16.1 mph - N/A   Clear
12:52 PM 84.9 °F 90.7 °F 72.0 °F 65% 30.16 in 10.0 mi ESE 13.8 mph - N/A   Clear
1:52 PM 84.0 °F 89.6 °F 72.0 °F 67% 30.14 in 10.0 mi ESE 13.8 mph - N/A   Clear
2:52 PM 84.2 °F 90.9 °F 73.4 °F 70% 30.12 in 10.0 mi SE 13.8 mph - N/A   Clear
3:52 PM 82.9 °F 89.4 °F 73.9 °F 74% 30.13 in 10.0 mi SE 12.7 mph - N/A   Clear
4:52 PM 81.0 °F 85.8 °F 73.0 °F 77% 30.12 in 10.0 mi SE 10.4 mph - N/A   Clear
5:52 PM 80.6 °F 85.4 °F 73.4 °F 79% 30.11 in 10.0 mi ESE 8.1 mph - N/A   Clear
6:33 PM 80.6 °F 86.2 °F 75.2 °F 84% 30.10 in 10.0 mi ESE 10.4 mph - N/A   Mostly Cloudy
6:52 PM 80.1 °F 85.1 °F 75.0 °F 85% 30.12 in 10.0 mi ESE 11.5 mph - N/A   Scattered Clouds
7:52 PM 78.8 °F - 75.2 °F 89% 30.13 in 10.0 mi East 10.4 mph - N/A   Mostly Cloudy
8:11 PM 78.8 °F - 73.4 °F 83% 30.13 in 10.0 mi ESE 11.5 mph - N/A   Mostly Cloudy
8:41 PM 78.8 °F - 73.4 °F 83% 30.14 in 10.0 mi ESE 10.4 mph - N/A   Mostly Cloudy
8:52 PM 79.0 °F - 73.9 °F 84% 30.14 in 10.0 mi ESE 10.4 mph - N/A   Mostly Cloudy
9:52 PM 78.8 °F - 71.6 °F 78% 30.15 in 10.0 mi ESE 12.7 mph - N/A   Partly Cloudy
10:52 PM 78.8 °F - 73.4 °F 83% 30.15 in 10.0 mi ESE 12.7 mph - N/A   Mostly Cloudy
11:52 PM 78.8 °F - 73.4 °F 83% 30.14 in 10.0 mi SE 12.7 mph - N/A   Clear